EW6336 Weather Reports


time (UTC)temp
C
wind
direction
speed
KPH
gust
KPH
rain 1hr
cm
rain 24hr
cm
rain mn
cm
humidity
%
barometer
mb
20260507042244 17 68 1.6 3.2 0.00 0.00 0.00 79 1009.7
20260507041244 17 68 1.6 4.8 0.00 0.00 0.00 78 1009.6
20260507040243 17 135 1.6 6.4 0.00 0.00 0.00 78 1009.6
20260507035243 17 135 3.2 4.8 0.00 0.00 0.00 78 1009.5
20260507034244 17 0.0 0.0 0.00 0.00 0.00 78 1009.3
20260507033303 17 0.0 0.0 0.00 0.00 0.00 78 1009.5
20260507032244 17 315 1.6 3.2 0.00 0.00 0.00 78 1009.4
20260507031304 17 315 1.6 3.2 0.00 0.00 0.00 78 1009.4
20260507030243 17 315 1.6 3.2 0.00 0.00 0.00 78 1009.4
20260507025244 17 315 1.6 4.8 0.00 0.00 0.00 78 1009.5
20260507024243 17 113 1.6 4.8 0.00 0.00 0.00 78 1009.4
20260507023244 17 135 4.8 9.7 0.00 0.00 0.00 78 1009.4
20260507022243 17 180 3.2 11.3 0.00 0.00 0.00 76 1009.5
20260507021243 18 203 4.8 11.3 0.00 0.00 0.00 75 1009.4
20260507020244 17 113 3.2 6.4 0.00 0.00 0.00 74 1009.4
20260507015243 18 113 1.6 4.8 0.00 0.00 0.00 75 1009.4
20260507014243 18 135 3.2 6.4 0.00 0.00 0.00 75 1009.6
20260507013323 18 113 4.8 9.7 0.00 0.00 0.00 75 1009.7
20260507012243 18 113 3.2 6.4 0.00 0.00 0.00 74 1009.8
20260507011404 18 113 4.8 9.7 0.00 0.00 0.00 74 1009.8
20260507010243 18 135 4.8 11.3 0.00 0.00 0.00 72 1010.0
20260507005243 18 113 8.0 14.5 0.00 0.00 0.00 71 1010.1
20260507004243 18 90 6.4 12.9 0.00 0.00 0.00 70 1010.0
20260507003243 18 113 6.4 11.3 0.00 0.00 0.00 70 1009.9
20260507002243 18 135 3.2 6.4 0.00 0.00 0.00 69 1009.8
20260507001243 18 0.0 1.6 0.00 0.00 0.00 70 1010.0
20260507000243 18 135 3.2 6.4 0.00 0.00 0.00 71 1010.1
20260506235242 18 135 3.2 6.4 0.00 0.00 0.00 71 1010.1
20260506234242 18 135 1.6 4.8 0.00 0.00 0.00 71 1010.1
20260506233303 18 135 3.2 4.8 0.00 0.00 0.00 72 1010.1
20260506232306 18 90 1.6 4.8 0.00 0.00 0.00 71 1010.2
20260506231242 18 45 1.6 3.2 0.00 0.00 0.00 71 1010.4
20260506230242 18 45 3.2 6.4 0.00 0.00 0.00 71 1010.4
20260506225242 18 0.0 3.2 0.00 0.00 0.00 72 1010.3
20260506224242 18 0.0 0.0 0.00 0.00 0.00 72 1010.4
20260506223242 18 0.0 0.0 0.00 0.00 0.00 73 1010.6
20260506222242 18 0.0 3.2 0.00 0.00 0.00 73 1010.6
20260506221242 18 90 3.2 4.8 0.00 0.00 0.00 73 1010.7
20260506220242 18 90 3.2 4.8 0.00 0.00 0.00 72 1010.8
20260506215242 18 45 1.6 4.8 0.00 0.00 0.00 72 1010.8
20260506214242 18 0.0 3.2 0.00 0.00 0.00 72 1011.0
20260506213244 18 68 1.6 3.2 0.00 0.00 0.00 73 1010.9
20260506212244 18 113 3.2 9.7 0.00 0.00 0.00 73 1011.0
20260506211244 18 45 1.6 3.2 0.00 0.00 0.00 73 1010.9
20260506210517 18 45 1.6 4.8 0.00 0.00 0.00 74 1010.8
20260506210242 18 90 1.6 6.4 0.00 0.00 0.00 75 1010.7
20260506205537 18 23 3.2 8.0 0.00 0.00 0.00 77 1010.6
20260506204517 18 135 1.6 6.4 0.00 0.00 0.00 77 1010.6
20260506203744 18 135 1.6 3.2 0.00 0.00 0.00 77 1010.6
20260506202744 18 135 1.6 4.8 0.00 0.00 0.00 76 1010.4
20260506201744 18 135 4.8 6.4 0.00 0.00 0.00 76 1010.3
20260506200744 18 113 3.2 6.4 0.00 0.00 0.00 75 1010.2
20260506195744 18 135 1.6 6.4 0.00 0.00 0.00 75 1010.0
20260506194744 19 113 4.8 9.7 0.00 0.00 0.00 74 1009.8
20260506193744 19 113 3.2 6.4 0.00 0.00 0.00 73 1009.8
20260506192744 19 113 3.2 6.4 0.00 0.00 0.00 73 1009.8
20260506191744 19 248 1.6 4.8 0.00 0.00 0.00 73 1009.8
20260506190701 19 248 3.2 6.4 0.00 0.00 0.00 72 1009.7
20260506185744 19 248 1.6 4.8 0.00 0.00 0.00 72 1009.6
20260506184744 19 248 1.6 3.2 0.00 0.00 0.00 72 1009.6
20260506183744 19 180 1.6 4.8 0.00 0.00 0.00 71 1009.6
20260506182744 19 180 1.6 4.8 0.00 0.00 0.00 71 1009.4
20260506181744 19 248 3.2 8.0 0.00 0.00 0.00 71 1009.5
20260506180824 20 180 3.2 8.0 0.00 0.00 0.00 70 1009.6
20260506175744 20 158 4.8 11.3 0.00 0.00 0.00 69 1009.4
20260506174744 20 180 3.2 6.4 0.00 0.00 0.00 69 1009.3
20260506173743 20 158 4.8 8.0 0.00 0.00 0.00 68 1009.3
20260506172744 20 180 3.2 9.7 0.00 0.00 0.00 68 1009.2
20260506171743 20 180 6.4 11.3 0.00 0.00 0.00 67 1009.4
20260506170744 20 180 3.2 8.0 0.00 0.00 0.00 68 1009.3
20260506165744 20 180 3.2 8.0 0.00 0.00 0.00 68 1009.3
20260506165036 20 180 3.2 8.0 0.00 0.00 0.00 69 1009.2
20260506164244 20 225 4.8 8.0 0.00 0.00 0.00 68 1009.1
20260506163303 20 180 4.8 9.7 0.00 0.00 0.00 67 1009.2
20260506162306 20 225 3.2 9.7 0.00 0.00 0.00 69 1009.2
20260506161243 20 203 4.8 9.7 0.00 0.00 0.00 69 1009.2
20260506160243 20 248 4.8 11.3 0.00 0.00 0.00 70 1009.3
20260506155324 20 225 4.8 14.5 0.00 0.00 0.00 70 1009.5
20260506154244 20 180 3.2 8.0 0.00 0.00 0.00 70 1009.5
20260506153243 20 180 4.8 11.3 0.00 0.00 0.00 70 1009.4
20260506152243 20 203 6.4 14.5 0.00 0.00 0.00 70 1009.6
20260506151324 20 225 8.0 16.1 0.00 0.00 0.00 70 1009.6
20260506150244 20 248 6.4 12.9 0.00 0.00 0.00 70 1009.8
20260506145243 20 248 6.4 14.5 0.00 0.00 0.00 70 1009.8
20260506144243 20 225 8.0 16.1 0.00 0.00 0.00 70 1009.9
20260506143243 20 225 8.0 16.1 0.00 0.00 0.00 69 1010.0
20260506142243 20 225 8.0 16.1 0.00 0.00 0.00 68 1010.1
20260506141243 20 203 9.7 17.7 0.00 0.00 0.00 69 1010.2
20260506140243 21 248 8.0 14.5 0.00 0.00 0.00 68 1010.3
20260506135243 20 203 8.0 14.5 0.00 0.00 0.00 70 1010.2
20260506134243 20 203 9.7 19.3 0.00 0.00 0.00 68 1010.3
20260506133243 20 248 8.0 16.1 0.00 0.00 0.00 68 1010.2
20260506132243 20 203 8.0 16.1 0.00 0.00 0.00 67 1010.2
20260506131323 20 180 9.7 17.7 0.00 0.00 0.00 66 1010.2
20260506130303 21 248 6.4 14.5 0.00 0.00 0.00 66 1010.2
20260506125243 20 225 8.0 16.1 0.00 0.00 0.00 67 1010.1
20260506124243 20 225 6.4 12.9 0.00 0.00 0.00 66 1010.2
20260506123243 20 225 8.0 19.3 0.00 0.00 0.00 65 1010.3
20260506122243 20 180 9.7 20.9 0.00 0.00 0.00 65 1010.3
20260506121243 20 180 6.4 14.5 0.00 0.00 0.00 64 1010.5
20260506120243 20 158 8.0 20.9 0.00 0.00 0.00 66 1010.6
20260506115306 21 180 8.0 14.5 0.00 0.00 0.00 65 1010.6
20260506114243 21 203 6.4 16.1 0.00 0.00 0.00 65 1010.5
20260506113303 21 180 8.0 14.5 0.00 0.00 0.00 66 1010.7
20260506112243 21 158 8.0 12.9 0.00 0.00 0.00 66 1010.7
20260506111243 21 225 6.4 12.9 0.00 0.00 0.00 66 1010.8
20260506110303 21 180 4.8 14.5 0.00 0.00 0.00 65 1010.9
20260506105243 20 225 6.4 12.9 0.00 0.00 0.00 65 1010.8
20260506104243 21 248 6.4 12.9 0.00 0.00 0.00 67 1010.8
20260506103303 21 225 4.8 9.7 0.00 0.00 0.00 64 1010.8
20260506102243 20 225 4.8 12.9 0.00 0.00 0.00 65 1010.9
20260506101243 21 270 4.8 9.7 0.00 0.00 0.00 65 1010.8
20260506100243 20 225 4.8 11.3 0.00 0.00 0.00 65 1010.8
20260506095242 20 180 4.8 9.7 0.00 0.00 0.00 64 1010.8
20260506094243 20 158 4.8 8.0 0.00 0.00 0.00 65 1010.7
20260506093242 20 225 6.4 9.7 0.00 0.00 0.00 64 1010.7
20260506092243 20 248 6.4 11.3 0.00 0.00 0.00 64 1010.6
20260506091302 20 180 4.8 12.9 0.00 0.00 0.00 66 1010.5
20260506090243 21 270 6.4 14.5 0.00 0.00 0.00 63 1010.4
20260506085242 21 270 6.4 12.9 0.00 0.00 0.00 59 1010.4
20260506084242 22 248 4.8 9.7 0.00 0.00 0.00 55 1010.3
20260506083302 22 135 3.2 6.4 0.00 0.00 0.00 37 1010.2
20260506082242 23 68 3.2 6.4 0.00 0.00 0.00 36 1010.1
20260506081243 23 68 3.2 8.0 0.00 0.00 0.00 36 1010.1
20260506080242 22 113 1.6 4.8 0.00 0.00 0.00 37 1010.0
20260506073242 21 45 1.6 8.0 0.00 0.00 0.00 44 1009.8
20260506072242 20 203 1.6 3.2 0.00 0.00 0.00 54 1009.9
20260506071242 19 203 3.2 6.4 0.00 0.00 0.00 59 1009.9
20260506070243 19 158 1.6 6.4 0.00 0.00 0.00 57 1010.0
20260506062242 17 68 1.6 4.8 0.00 0.00 0.00 68 1010.1
20260506061302 17 68 1.6 4.8 0.00 0.00 0.00 73 1010.0
20260506060302 16 0.0 3.2 0.00 0.00 0.00 77 1009.9
20260506051304 16 23 1.6 3.2 0.00 0.00 0.00 70 1009.8
20260506050244 16 23 1.6 4.8 0.00 0.00 0.00 68 1009.7
20260506044244 15 45 1.6 3.2 0.00 0.00 0.00 72 1009.3
20260506043244 15 0.0 1.6 0.00 0.00 0.00 72 1009.3